www.pogodaiklimat.ru

Погода и климат >> Архив погоды >> Испания >> Инохоса-дель-Дуке


ПОГОДА в Инохоса-дель-Дуке

  • Прогноз погоды в Инохоса-дель-Дуке
  • Монитор погоды в Инохоса-дель-Дуке

АРХИВ ПОГОДЫ в Инохоса-дель-Дуке

Время (UTC), дата Ветер
(напр.,м/с)
 
Видим.   Явления Облачность Т
(С)
Тd
(С)
f
(%)
Тe
(С)
Тes
(С)
Комфортность P
(гПа)
Po
(гПа)
Тmin
(С)
Tmax
(С)
R
(мм)
R24
(мм)
S
(см)
14 12.09 В 5-7
{7}
н/о н/о +26.1 +9.8 36 +27 +27 жарко 1020.9 959.3
16 12.09 В 4-6
{7}
н/о н/о +23.4 +10.8 45 +26 +26 жарко 1022.0 959.8
17 12.09 В 3-5
{6}
н/о н/о +23.0 +11.7 49 +25 +25 комфорт 1022.2 959.9
18 12.09 В 3-5
{5}
н/о н/о +22.6 +12.2 52 +25 +25 комфорт 1021.7 959.4 +27.3
19 12.09 В 3-4
{4}
н/о н/о +22.2 +12.4 54 +25 +25 комфорт 1022.0 959.6
20 12.09 В 4-6
{6}
н/о н/о +21.9 +11.9 53 +24 +24 комфорт 1022.6 960.1
22 12.09 В 3-4
{5}
н/о н/о +19.5 +12.7 65 +21 +21 комфорт 1023.7 960.7
23 12.09 В 2-3
{4}
н/о н/о +18.6 +11.9 65 +20 +20 1024.0 960.7
00 13.09 В 1-2
{3}
н/о н/о +18.3 +11.6 65 +20 +20 1022.5 959.3
01 13.09 В 3-4
{5}
н/о н/о +18.7 +11.6 63 +20 +20 1022.5 959.3
02 13.09 В 2-3
{4}
н/о н/о +18.2 +11.0 63 +19 +19 1022.4 959.1
04 13.09 В 2-4
{4}
н/о н/о +17.2 +11.4 69 +18 +18 1022.2 958.7
05 13.09 В 3-4
{4}
н/о н/о +17.4 +11.9 70 +18 +18 1021.6 958.2
06 13.09 СВ 2 н/о н/о +17.0 +12.1 73 +18 +18 1021.6 958.2 +17.0 +22.4
07 13.09 В 2-4
{4}
н/о н/о +17.0 +12.5 75 +17 +17 1021.9 958.4
08 13.09 В 4-5
{5}
н/о н/о +17.4 +12.7 74 +17 +17 1022.6 959.2
10 13.09 В 3-5
{5}
н/о ливневой дождь н/о +16.2 +13.4 83 +16 +16 1022.8 959.1 1
11 13.09 В 3-5
{6}
н/о осадки н/о +15.6 +12.3 81 +15 +15 1022.4 958.6 0.8
12 13.09 В 3-5
{6}
н/о {ливн. осадки} н/о +17.1 +12.8 76 +17 +17 1021.9 958.5 2
13 13.09 В 4-5
{5}
н/о н/о +19.9 +13.9 68 +22 +22 комфорт 1020.4 957.7
14 13.09 В 3-5
{5}
н/о н/о +21.9 +13.3 58 +25 +25 комфорт 1019.3 957.0
16 13.09 В 3-4
{4}
н/о н/о +23.3 +12.8 52 +26 +26 жарко 1018.1 956.2
17 13.09 В 4-6
{6}
н/о н/о +21.8 +13.7 60 +25 +25 комфорт 1018.9 956.6
18 13.09 В 2-3
{6}
н/о н/о +20.1 +13.1 64 +23 +23 комфорт 1020.0 957.3 +23.7
19 13.09 СВ 1-2
{3}
н/о н/о +19.3 +11.1 59 +21 +21 комфорт 1020.3 957.4
20 13.09 З 1-2
{2}
н/о в посл. час осадки н/о +17.4 +13.9 80 +19 +19 1021.5 958.2 0.7
22 13.09 СВ 1-2
{2}
н/о в посл. час осадки н/о +15.9 +13.2 84 +17 +17 1021.7 958.0 0.1
23 13.09 СВ 1-1
{3}
н/о н/о +15.5 +13.0 85 +17 +17 1021.6 957.9
00 14.09 СВ 1-1
{1}
н/о н/о +15.2 +12.7 85 +16 +16 1021.6 957.8 0.1
01 14.09 СЗ 1-1
{2}
н/о н/о +14.0 +12.5 91 +15 +15 1021.1 957.1
02 14.09 штиль 0-1
{2}
н/о н/о +14.8 +13.9 94 +14 +14 1020.6 956.8
04 14.09 В 1-1
{2}
н/о н/о +15.4 +13.6 89 +17 +17 1019.4 955.8
05 14.09 З 1-1
{1}
н/о н/о +15.4 +13.9 91 +17 +17 1019.7 956.1
06 14.09 СЗ 1 н/о н/о +15.6 +14.3 92 +17 +17 1020.0 956.4 +13.9 +20.0 0.6
07 14.09 ЮВ 1-1
{1}
н/о н/о +15.5 +14.3 93 +17 +17 1020.4 956.8
08 14.09 ЮВ 1-2
{2}
н/о н/о +16.2 +14.9 92 +17 +17 1020.5 957.0
10 14.09 В 1-2
{2}
н/о н/о +19.5 +15.3 77 +22 +22 комфорт 1020.4 957.6
11 14.09 В 1-2
{2}
н/о н/о +21.3 +14.9 67 +24 +24 комфорт 1019.8 957.4
12 14.09 В 2-3
{3}
н/о н/о +22.1 +13.0 56 +25 +25 комфорт 1019.0 956.8
13 14.09 ЮВ 2-3
{3}
н/о н/о +22.1 +13.0 56 +25 +25 комфорт 1018.8 956.6
14 14.09 ЮВ 3-3
{4}
н/о н/о +21.6 +13.5 60 +24 +24 комфорт 1018.6 956.3
16 14.09 В 2-3
{4}
н/о н/о +20.4 +14.7 70 +24 +24 комфорт 1018.0 955.5
17 14.09 В 1-2
{3}
н/о н/о +20.6 +14.5 68 +24 +24 комфорт 1017.9 955.5
18 14.09 СВ 1-2
{2}
н/о н/о +20.4 +15.0 71 +24 +24 комфорт 1018.2 955.7 +22.4
19 14.09 С 2-3
{3}
н/о н/о +19.6 +15.4 77 +22 +22 комфорт 1018.3 955.7
20 14.09 СВ 1-2
{2}
н/о н/о +19.8 +15.0 74 +23 +23 комфорт 1018.5 955.9
22 14.09 ЮВ 1-2
{2}
н/о в посл. час осадки н/о +18.2 +16.6 90 +20 +20 1019.0 956.1 5
23 14.09 Ю 1-1
{2}
н/о н/о +17.9 +16.4 91 +20 +20 1019.0 956.0
00 15.09 Ю 1-1
{1}
н/о н/о +17.6 +16.6 94 +19 +19 1019.1 956.0 5
01 15.09 штиль 0-1
{1}
н/о н/о +17.5 +16.6 94 +17 +17 1018.5 955.5
02 15.09 З 1-1
{1}
н/о осадки н/о +17.5 +16.7 95 +19 +19 1018.6 955.6 0.2
04 15.09 штиль 0-1
{1}
н/о в посл. час осадки н/о +17.0 +16.4 96 +17 +17 1018.3 955.2 0.1
05 15.09 штиль 0-1
{1}
н/о н/о +16.5 +15.9 96 +16 +16 1018.4 955.1
06 15.09 Ю 1 н/о {ливн. осадки} н/о +17.1 +16.6 97 +19 +19 1018.4 955.3 +16.5 +20.0 0.1
07 15.09 ЮВ 1-1
{1}
н/о н/о +16.9 +16.4 97 +18 +18 1018.7 955.5
08 15.09 штиль 0-1
{1}
н/о н/о +18.0 +17.2 95 +18 +18 1018.8 955.9
10 15.09 ЮВ 1-1
{1}
н/о н/о +22.5 +17.0 71 +27 +27 душно 1018.6 956.6
11 15.09 Ю 1-2
{2}
н/о н/о +24.2 +16.2 61 +28 +28 душно 1018.0 956.3
12 15.09 С 1-2
{2}
н/о н/о +25.7 +15.4 53 +29 +29 душно 1017.4 956.0
13 15.09 СЗ 1-2
{3}
н/о н/о +26.1 +14.5 49 +29 +29 жарко 1016.5 955.2
14 15.09 З 2-3
{3}
н/о н/о +26.9 +13.7 44 +29 +29 жарко 1015.9 954.8
16 15.09 ЮВ 2-2
{4}
н/о н/о +24.3 +16.8 63 +28 +28 душно 1015.9 954.4
17 15.09 ЮВ 1-2
{3}
н/о н/о +24.9 +15.3 55 +28 +28 жарко 1015.8 954.4
18 15.09 В 1-2
{2}
н/о н/о +24.2 +15.7 59 +27 +27 жарко 1016.2 954.6 +27.3
19 15.09 В 1-2
{2}
н/о н/о +23.0 +16.3 66 +28 +28 душно 1016.6 954.8
20 15.09 ЮВ 1-1
{2}
н/о н/о +22.1 +15.9 68 +26 +26 душно 1017.4 955.3
22 15.09 ЮВ 1-1
{2}
н/о н/о +20.8 +16.4 76 +26 +26 душно 1017.8 955.5
23 15.09 Ю 1-1
{1}
н/о н/о +20.3 +16.3 78 +24 +24 комфорт 1017.9 955.5
00 16.09 Ю 1-1
{1}
н/о н/о +19.6 +15.9 79 +23 +23 комфорт 1018.0 955.4
01 16.09 ЮВ 1-1
{1}
н/о н/о +19.0 +15.4 80 +21 +21 комфорт 1018.0 955.3
02 16.09 Ю 1-1
{1}
н/о н/о +18.5 +15.5 83 +21 +21 комфорт 1017.9 955.1
04 16.09 З 1-1
{1}
н/о н/о +19.8 +16.2 80 +24 +24 комфорт 1017.1 954.6
05 16.09 ЮЗ 1-1
{1}
н/о н/о +19.7 +16.1 80 +23 +23 комфорт 1017.2 954.7
06 16.09 З 1 н/о н/о +20.0 +16.0 78 +24 +24 комфорт 1017.4 954.9 +18.3 +24.1
07 16.09 ЮЗ 1-2
{2}
н/о н/о +20.1 +16.0 77 +24 +24 комфорт 1017.7 955.2
08 16.09 ЮЗ 1-1
{1}
н/о н/о +22.4 +15.0 63 +26 +26 жарко 1017.9 955.8
10 16.09 СВ 1-1
{1}
н/о н/о +26.0 +13.5 46 +28 +28 жарко 1018.1 956.7
11 16.09 З 1-2
{2}
н/о н/о +26.5 +12.5 42 +28 +28 жарко 1017.7 956.4
12 16.09 Ю 1-2
{2}
н/о н/о +28.2 +11.7 36 +29 +29 жарко 1017.1 956.1
13 16.09 Ю 1-2
{4}
н/о н/о +27.2 +12.8 41 +29 +29 жарко 1016.4 955.3
14 16.09 Ю 1-2
{3}
н/о н/о +28.3 +12.2 37 +29 +29 жарко 1015.7 954.9
16 16.09 СВ 1-1
{2}
н/о н/о +28.1 +12.0 37 +29 +29 жарко 1014.8 954.0
17 16.09 В 1-1
{2}
н/о н/о +27.8 +12.2 38 +29 +29 жарко 1014.9 954.0
18 16.09 ЮВ 1-1
{1}
н/о н/о +27.0 +12.6 41 +29 +29 жарко 1015.4 954.3 +28.5
19 16.09 ЮВ 1-1
{1}
н/о н/о +25.8 +13.0 45 +28 +28 жарко 1015.5 954.2
20 16.09 Ю 1-2
{2}
н/о н/о +24.7 +13.3 49 +27 +27 жарко 1016.1 954.6
22 16.09 Ю 1-1
{2}
н/о н/о +21.7 +13.6 60 +24 +24 комфорт 1017.4 955.2
23 16.09 ЮВ 1-1
{1}
н/о н/о +20.6 +13.8 65 +24 +24 комфорт 1017.3 954.9
00 17.09 Ю 1-1
{1}
н/о н/о +20.2 +13.7 66 +24 +24 комфорт 1017.1 954.6
01 17.09 В 1-1
{1}
н/о н/о +19.8 +13.9 69 +23 +23 комфорт 1017.1 954.5
02 17.09 ЮВ 1-1
{1}
н/о н/о +18.8 +13.9 73 +21 +21 комфорт 1016.7 954.0
04 17.09 ЮВ 1-1
{2}
н/о н/о +18.9 +13.9 73 +21 +21 комфорт 1016.4 953.7
05 17.09 ЮВ 1-1
{1}
н/о н/о +18.7 +13.8 73 +21 +21 комфорт 1015.7 953.0
06 17.09 ЮВ 1 н/о н/о +16.7 +13.3 80 +18 +18 1016.1 953.0 +16.7 +26.7
07 17.09 Ю 1-1
{1}
н/о н/о +18.0 +14.1 78 +20 +20 1016.7 953.8
08 17.09 штиль 0-1
{1}
н/о н/о +22.0 +14.1 61 +25 +25 комфорт 1015.9 953.9
10 17.09 ЮВ 1-2
{2}
н/о н/о +26.3 +13.5 45 +28 +28 жарко 1015.7 954.5
11 17.09 Ю 1-3
{3}
н/о н/о +27.6 +13.6 42 +29 +29 жарко 1014.8 953.9
12 17.09 Ю 1-2
{3}
н/о н/о +28.4 +13.2 39 +30 +30 жарко 1013.9 953.2
13 17.09 Ю 2-3
{3}
н/о н/о +28.3 +11.8 36 +29 +29 жарко 1013.9 953.2
14 17.09 Ю 2-3
{5}
н/о н/о +28.1 +10.3 33 +29 +29 жарко 1012.7 952.0
16 17.09 ЮЗ 2-3
{4}
н/о н/о +29.5 +9.6 29 +29 +29 жарко 1012.0 951.6
17 17.09 ЮЗ 2-4
{4}
н/о н/о +28.8 +10.4 32 +29 +29 жарко 1011.7 951.2
18 17.09 Ю 2-3
{3}
н/о н/о +26.7 +12.3 41 +28 +28 жарко 1012.6 951.6 +29.7
19 17.09 Ю 2-2
{3}
н/о н/о +23.9 +12.5 49 +26 +26 жарко 1013.3 951.8
20 17.09 Ю 2-2
{2}
н/о н/о +22.2 +13.3 57 +25 +25 комфорт 1013.8 951.9
22 17.09 Ю 1-1
{2}
н/о н/о +20.5 +14.4 68 +24 +24 комфорт 1015.3 953.0
23 17.09 Ю 1-1
{1}
н/о н/о +20.0 +14.3 70 +24 +24 комфорт 1015.2 952.8
00 18.09 В 1-2
{5}
н/о н/о +20.2 +13.9 67 +23 +23 комфорт 1015.2 952.8
01 18.09 ЮВ 1-2
{2}
н/о н/о +19.0 +13.2 69 +21 +21 комфорт 1015.0 952.4
02 18.09 Ю 1-1
{1}
н/о н/о +17.7 +13.7 77 +19 +19 1015.3 952.4
04 18.09 Ю 1-1
{1}
н/о н/о +16.2 +13.4 83 +17 +17 1015.3 952.1
05 18.09 СЗ 1-1
{2}
н/о н/о +18.0 +13.7 76 +20 +20 1014.9 952.1
06 18.09 ЮВ 1 н/о н/о +15.5 +12.6 83 +17 +17 1016.0 952.6 +15.5 +26.3
07 18.09 Ю 1-1
{1}
н/о н/о +16.5 +13.8 84 +18 +18 1016.4 953.2
08 18.09 Ю 1-1
{1}
н/о н/о +20.6 +15.2 71 +25 +25 комфорт 1016.1 953.8
12 18.09 З 1-2
{3}
н/о н/о +28.3 +12.6 38 +30 +30 жарко 1014.7 953.9
13 18.09 З 1-2
{2}
н/о н/о +27.7 +10.9 35 +28 +28 жарко 1014.2 953.3
14 18.09 штиль 0-2
{3}
н/о н/о +29.7 +10.3 30 +30 +30 жарко 1013.3 952.8
16 18.09 ЮЗ 1-3
{3}
н/о н/о +29.9 +9.9 29 +30 +30 жарко 1012.5 952.1
17 18.09 З 2-3
{3}
н/о н/о +28.3 +9.6 31 +28 +28 жарко 1012.9 952.2
18 18.09 З 1-2
{3}
н/о н/о +27.6 +8.9 31 +28 +28 жарко 1013.2 952.3 +30.4
19 18.09 ЮЗ 1-2
{2}
н/о н/о +26.2 +11.1 39 +27 +27 жарко 1013.6 952.5
20 18.09 ЮЗ 2-3
{3}
н/о н/о +24.7 +12.0 45 +26 +26 жарко 1014.6 953.1
22 18.09 ЮЗ 1-2
{2}
н/о н/о +21.5 +11.2 52 +23 +23 комфорт 1015.7 953.5
23 18.09 ЮЗ 2-2
{3}
н/о н/о +21.1 +11.4 54 +23 +23 комфорт 1015.8 953.5
00 19.09 ЮЗ 1-2
{2}
н/о н/о +20.4 +11.1 55 +23 +23 комфорт 1016.0 953.6
01 19.09 З 1-2
{2}
н/о н/о +19.8 +11.0 57 +22 +22 комфорт 1016.2 953.6
02 19.09 З 1-1
{2}
н/о н/о +18.2 +10.8 62 +20 +20 1016.0 953.1
04 19.09 ЮЗ 1-1
{1}
н/о н/о +16.2 +10.0 67 +18 +18 1016.2 952.9
05 19.09 З 1-1
{1}
н/о н/о +15.7 +10.0 69 +17 +17 1016.3 952.9
06 19.09 ЮЗ 1 н/о н/о +14.7 +9.9 73 +15 +15 1017.0 953.3 +14.7 +27.4
07 19.09 штиль 0-1
{1}
н/о н/о +16.0 +10.3 69 +16 +16 1017.1 953.7
08 19.09 ЮВ 1-1
{1}
н/о н/о +20.1 +11.0 56 +23 +23 комфорт 1016.5 954.0
10 19.09 штиль 0-1
{2}
н/о н/о +24.8 +10.3 40 +26 +26 жарко 1016.3 954.7

 

Местоположение метеостанции Инохоса-дель-Дуке (Испания): широта 38.50 долгота -5.13 высота над уровнем моря 541 м.

В архиве по умолчанию представлена погода в Инохоса-дель-Дуке за последнюю неделю. Архивные данные за месяц целиком и за предыдущие месяцы, начиная с января 2011 года, Вы можете получить, выбрав интересующий диапазон дат из раскрывающегося списка и нажав кнопку "Ввод!".


*Определитесь, кто Вы:
робот инопланетянин человек

Внимание! Время в таблицах - всемирное. Для получения местного времени необходимо прибавить поправку, которая равна 1 ч.

Смотрите также архив погоды в соседних городах и на ближайших метеорологических станциях:

Погода в Вильянуэва-де-Кордобе (Испания) (49 км)
Погода в Эррера-дель-Дуке (Испания) (75 км)
Погода в Кордове (Испания) (76 км)
Погода в Пуэбла-де-дон-Родриго (Испания) (79 км)
Погода в Дон Бенито (Испания) (83 км)
Погода в Льерене (Испания) (83 км)
Погода в Касалья-де-ла-Сьерра (Испания) (85 км)
Погода в Андухаре (Испания) (108 км)
Погода в Эсихе (Испания) (109 км)
Погода в Сьюдад-Реале (Испания) (118 км)

Пояснения к столбцам:

Ветер - указаны скорость ветра в м/с - средняя за 10 мин, порывы в срок и между сроками (в фигурных скобках) и направление, откуда дует ветер: С - северный, СВ - северо-восточный, В - восточный, ЮВ - юго-восточный, Ю - южный, ЮЗ - юго-западный, З - западный, СЗ - северо-западный.
Видимость - горизонтальная дальность видимости в метрах или километрах. При видимости от 1 до 10 км при отсутствии осадков обычно наблюдается дымка, при ухудшении видимости до 1 км и менее - туман. В сухую погоду видимость может ухудшаться дымом, пылью или мглою.
Явления - указаны атмосферные явления, наблюдавшиеся в срок или в последний час перед сроком; фигурными скобками обозначены явления, наблюдавшиеся между сроками (за 1-3 часа до срока); квадратными скобками обозначены град или гололедные отложения с указанием их диаметра в мм.
Облачность - указаны через наклонную черту общая и нижняя облачность в баллах и высота нижней границы облаков в метрах; квадратными скобками обозначены формы облаков: Ci - перистые, Cs - перисто-слоистые, Cc - перисто-кучевые, Ac - высококучевые, As - высокослоистые, Sc - слоисто-кучевые, Ns - слоисто-дождевые, Cu - кучевые, Cb - кучево-дождевые. Подробнее классификацию облаков см. в Атласе облаков (PDF).
T - Температура воздуха - температура, измеренная на высоте 2 м над землей.
Td - Температура точки росы - температура, при понижении до которой содержащийся в воздухе водяной пар достигнет насыщения.
f - Относительная влажность воздуха - влажноcть воздуха, измеренная на высоте 2 м над землей.
Te - Эффективная температура - температура, которую ощущает одетый по сезону человек в тени. Характеристика душности погоды. При расчете учитывается влияние влажности воздуха и скорости ветра на теплоощущения человека.
Tes - Эффективная температура на солнце - температура, которую ощущает человек, с поправкой на солнечный нагрев. Характеристика знойности погоды. Зависит от высоты солнца над горизонтом, облачности и скорости ветра. Ночью, в пасмурную погоду, а также при ветре 12 м/с и более поправка равна нулю.
P - Атмосферное давление - приведенное к уровню моря атмосферное давление.
Po - Атмосферное давление - измеренное на уровне метеостанции атмосферное давление.
Tmin - Минимальная температура - минимум температуры воздуха на высоте 2 м над землей.
Tmax - Максимальная температура - максимум температуры воздуха на высоте 2 м над землей.
R - Количество осадков - Количество выпавших осадков за период времени, мм. При наведении курсора мыши на число - период времени, за который выпало указанное количество осадков.
R24 - Количество осадков - Количество выпавших осадков за 24 часа, мм.
S - Снежный покров - Высота снежного покрова, см. При наведении курсора мыши на число - состояние снежного покрова и степень покрытия местности в баллах.